[[{"header":{"parameterUnit":"m.s-1","parameterCategory":2,"la1":30.2992,"la2":30.254,"lo1":-89.0895,"lo2":-89.0443,"dy":0.0025,"dx":0.0025,"nx":19,"ny":19,"refTime":"2026-04-30T03:00:00:Z","depth":"0","parameterNumber":2,"parameterNumberName":"U-component_of_CURRENTS"},"data":[0,0,0,0.2016,0.2019,0.2184,0.2185,0.2281,0.2281,0,0,0,0,0,0,0,0,0,0,0,0.1951,0.1952,0.2015,0.202,0.2184,0.2185,0.2281,0.2281,0,0,0,0,0,0,0,0,0,0,0,0.195,0.1951,0.1953,0.202,0.2184,0.2185,0.228,0.2183,0,0,0,0,0,0,0,0,0,0,0.2037,0.1978,0.1951,0.1953,0.2021,0.2184,0.2185,0.218,0.2189,0.2175,0,0.2206,0,0.225,0.2285,0.2286,0,0,0,0.2014,0.1971,0.2035,0.1953,0.2023,0.2184,0.2108,0.2186,0.2196,0.2187,0.2208,0.2213,0.2252,0.2286,0.2286,0.2367,0.2367,0,0,0.2005,0.1959,0.2028,0.2042,0.2071,0.2103,0.2114,0.2194,0.2192,0.2208,0.2216,0.2253,0.2286,0.2287,0.2366,0.2367,0,0,0,0.1983,0.1952,0.2017,0.2036,0.2079,0.2108,0.212,0.2188,0.2216,0.2217,0.2254,0.2287,0.2287,0.2366,0.2366,0.2371,0,0,0,0.1977,0.1941,0.2012,0.1984,0.2078,0.2147,0.2112,0.221,0.2221,0.2254,0.2287,0.2288,0.2365,0.2366,0.237,0.2307,0,0,0,0.1942,0.1936,0.1962,0.1981,0.2059,0.2148,0.218,0.2214,0.2243,0.2286,0.2288,0.2365,0.2366,0.2369,0.2308,0.2326,0,0,0,0.188,0.1892,0.1961,0.198,0.2058,0.2142,0.218,0.2243,0.2278,0.2287,0.2365,0.2366,0.2369,0.2308,0.2326,0.2248,0.2242,0,0,0.1855,0.1887,0.1899,0.1965,0.2032,0.2119,0.2189,0.2257,0.2287,0.2329,0.2332,0.2371,0.2308,0.2326,0.2304,0.2295,0,0,0,0.1865,0.1882,0.1911,0.197,0.2051,0.2137,0.2231,0.2278,0.2353,0.2317,0.2389,0.2348,0.236,0.2314,0.2308,0.2232,0.2371,0.2371,0.2371,0.1802,0.1854,0.1871,0.1958,0.2018,0.2158,0.2219,0.2302,0.2352,0.2397,0.2369,0.2396,0.2351,0.2344,0.2268,0.2422,0.2422,0.2422,0.2422,0.1766,0.1794,0.1839,0.1869,0.1977,0.2047,0.2205,0.2278,0.2366,0.2395,0.241,0.234,0.2337,0.2259,0.2423,0.2423,0.2423,0.2422,0.2422,0.1733,0.1758,0.1751,0.1798,0.1858,0.1991,0.2067,0.2204,0.231,0.2339,0.232,0.2319,0.2233,0.2378,0.2378,0.2378,0.2378,0.2377,0.2377,0.1729,0.1727,0.1721,0.1745,0.177,0.1845,0.2002,0.2068,0.2189,0.2271,0.2271,0.2223,0.2382,0.2365,0.2375,0.2375,0.2375,0.2376,0.2376,0.1807,0.1764,0.1753,0.1745,0.1759,0.1748,0.1879,0.197,0.206,0.2087,0.2107,0.2255,0.2235,0.2239,0.2219,0.219,0.219,0.219,0.219,0.1882,0.1846,0.1826,0.1779,0.175,0.1728,0.171,0.1786,0.1903,0.1932,0.1989,0.1983,0.1994,0.1961,0.1971,0.1946,0.1849,0.1848,0.1848,0.1999,0.1944,0.1938,0.1805,0.1738,0.1673,0.1595,0.1582,0.172,0.183,0.1898,0.1913,0.1904,0.1927,0.1878,0.1899,0.1859,0,0]},{"header":{"parameterUnit":"m.s-1","parameterCategory":2,"la1":30.2992,"la2":30.254,"lo1":-89.0895,"lo2":-89.0443,"dy":0.0025,"dx":0.0025,"nx":19,"ny":19,"refTime":"2026-04-30T03:00:00:Z","depth":"0","parameterNumber":3,"parameterNumberName":"V-component_of_CURRENTS"},"data":[0,0,0,0.0273,0.0272,0.0208,0.0208,0.0111,0.011,0,0,0,0,0,0,0,0,0,0,0,0.03,0.03,0.0273,0.0272,0.0208,0.0208,0.0111,0.011,0,0,0,0,0,0,0,0,0,0,0,0.03,0.03,0.03,0.0272,0.0208,0.0208,0.0111,0.016,0,0,0,0,0,0,0,0,0,0,0.0222,0.0258,0.03,0.03,0.0271,0.0208,0.0208,0.0162,0.0157,0.0139,0,0.0142,0,0.0127,0.0105,0.0104,0,0,0,0.0259,0.0263,0.0243,0.03,0.0271,0.0209,0.0233,0.0159,0.0153,0.0132,0.0141,0.0137,0.0125,0.0104,0.0104,0.0089,0.009,0,0,0.0262,0.0285,0.0248,0.024,0.027,0.0235,0.0232,0.0156,0.0157,0.014,0.0134,0.0124,0.0103,0.0103,0.0089,0.0089,0,0,0,0.0281,0.0288,0.027,0.0244,0.0236,0.0234,0.0229,0.016,0.0154,0.0133,0.0123,0.0103,0.0102,0.0088,0.0089,0.0212,0,0,0,0.0283,0.0299,0.0272,0.0284,0.0238,0.02,0.0236,0.016,0.0151,0.0123,0.0103,0.0101,0.0088,0.0089,0.0208,0.0259,0,0,0,0.03,0.0301,0.0298,0.0286,0.0263,0.0201,0.019,0.0157,0.0144,0.0104,0.0101,0.0087,0.0088,0.0204,0.0252,0.0301,0,0,0,0.0317,0.0336,0.0299,0.0323,0.0264,0.0262,0.0191,0.0172,0.0145,0.0102,0.0088,0.0089,0.0203,0.0248,0.0297,0.0335,0.0358,0,0,0.0352,0.0341,0.0357,0.0323,0.0342,0.0268,0.0296,0.0223,0.0155,0.0108,0.0107,0.0209,0.0252,0.03,0.04,0.0422,0,0,0,0.0376,0.0389,0.0389,0.0391,0.037,0.0367,0.0295,0.0271,0.0229,0.0146,0.0198,0.022,0.0247,0.026,0.0277,0.023,0.0094,0.0094,0.0094,0.044,0.0435,0.0467,0.0461,0.0464,0.043,0.0428,0.0377,0.0301,0.0305,0.0313,0.0422,0.0438,0.0451,0.0403,0.0303,0.0304,0.0304,0.0304,0.0507,0.0533,0.0533,0.0562,0.0558,0.0576,0.0551,0.0512,0.0499,0.0418,0.0438,0.038,0.0477,0.0419,0.0312,0.0311,0.031,0.0309,0.0308,0.0549,0.0565,0.0578,0.0629,0.0675,0.0672,0.0722,0.0681,0.061,0.063,0.0604,0.0602,0.0555,0.0631,0.0632,0.0632,0.0632,0.0633,0.0633,0.0591,0.0606,0.0659,0.0705,0.0752,0.0812,0.0821,0.0824,0.0799,0.0737,0.0737,0.0592,0.052,0.0513,0.064,0.0639,0.0638,0.0637,0.0637,0.0675,0.0668,0.0751,0.0799,0.0904,0.0984,0.0982,0.0998,0.0976,0.0975,0.0798,0.0785,0.0743,0.0727,0.0724,0.0898,0.0898,0.0898,0.0898,0.0738,0.0736,0.0849,0.0932,0.1028,0.1073,0.1153,0.1137,0.1022,0.0946,0.0879,0.0813,0.0805,0.076,0.0745,0.0738,0.0912,0.0912,0.0911,0.0828,0.0839,0.093,0.0979,0.1085,0.1167,0.1233,0.1232,0.1049,0.0904,0.0813,0.0812,0.0702,0.0692,0.0604,0.0585,0.0566,0,0]}],[{"header":{"parameterUnit":"m.s-1","parameterCategory":2,"la1":30.2992,"la2":30.254,"lo1":-89.0895,"lo2":-89.0443,"dy":0.0025,"dx":0.0025,"nx":19,"ny":19,"refTime":"2026-04-30T03:00:00:Z","depth":"2","parameterNumber":2,"parameterNumberName":"U-component_of_CURRENTS"},"data":[0,0,0,0.1909,0.1912,0.2097,0.2098,0.2332,0.2334,0,0,0,0,0,0,0,0,0,0,0,0.1861,0.1862,0.1909,0.1912,0.2097,0.2098,0.2332,0.2334,0,0,0,0,0,0,0,0,0,0,0,0.1861,0.1861,0.1862,0.1912,0.2096,0.2098,0.2331,0.2202,0,0,0,0,0,0,0,0,0,0,0.2027,0.1965,0.1861,0.1862,0.1913,0.2096,0.2098,0.2197,0.221,0.2235,0,0.225,0,0.2272,0.2345,0.2346,0,0,0,0.1954,0.1954,0.1996,0.1862,0.1914,0.2096,0.2025,0.2205,0.222,0.2253,0.2254,0.2262,0.2276,0.2347,0.2347,0.2504,0.2504,0,0,0.1943,0.1909,0.1985,0.2005,0.1945,0.2019,0.203,0.2215,0.2227,0.2255,0.2268,0.228,0.2348,0.2349,0.2504,0.2504,0,0,0,0.1886,0.1901,0.1941,0.1995,0.2015,0.2023,0.2036,0.222,0.2231,0.227,0.2283,0.2349,0.2351,0.2503,0.2504,0.243,0,0,0,0.1882,0.1865,0.1935,0.1919,0.2011,0.2118,0.2038,0.2219,0.224,0.2281,0.2349,0.2353,0.2503,0.2504,0.2431,0.2394,0,0,0,0.1855,0.1862,0.1876,0.1916,0.1975,0.2115,0.2139,0.2225,0.2245,0.2346,0.2353,0.2502,0.2503,0.2432,0.2397,0.242,0,0,0,0.1825,0.1832,0.1876,0.1894,0.1972,0.2055,0.2139,0.2222,0.2301,0.235,0.2503,0.2504,0.2432,0.2398,0.242,0.2313,0.23,0,0,0.1811,0.183,0.184,0.1882,0.1943,0.2034,0.2114,0.2249,0.2329,0.2448,0.2453,0.2431,0.2397,0.242,0.2367,0.2353,0,0,0,0.1821,0.1832,0.1861,0.1905,0.1975,0.2072,0.219,0.2251,0.2383,0.2373,0.2471,0.2453,0.2469,0.2407,0.2397,0.2508,0.2508,0.2508,0.2508,0.1783,0.1818,0.1841,0.191,0.1969,0.2099,0.2176,0.2288,0.236,0.2412,0.2422,0.2428,0.2362,0.2352,0.246,0.246,0.2459,0.2459,0.2459,0.1754,0.1771,0.1814,0.1844,0.1942,0.2013,0.2177,0.2246,0.2365,0.2413,0.2433,0.2368,0.2336,0.2454,0.2455,0.2456,0.2456,0.2457,0.2457,0.1725,0.174,0.1742,0.1783,0.1846,0.1971,0.2044,0.2176,0.2298,0.2317,0.2309,0.2309,0.2376,0.2348,0.2348,0.2348,0.2348,0.2348,0.2348,0.1705,0.1711,0.1712,0.1742,0.1768,0.1841,0.1991,0.2052,0.2156,0.2231,0.2232,0.2392,0.2395,0.2373,0.2347,0.2347,0.2347,0.2347,0.2347,0.176,0.1721,0.1718,0.1721,0.1747,0.174,0.1867,0.1938,0.2028,0.2047,0.2198,0.2202,0.2224,0.2233,0.2209,0.2142,0.2142,0.2142,0.2142,0.18,0.1776,0.1758,0.1734,0.1721,0.1711,0.1681,0.1717,0.1863,0.192,0.193,0.1903,0.1916,0.1922,0.1938,0.1909,0.1764,0.1763,0.1762,0.1888,0.1837,0.1839,0.1744,0.1703,0.1643,0.1547,0.1452,0.1545,0.1748,0.1872,0.2115,0.2103,0.2113,0.2147,0.2162,0.2125,0,0]},{"header":{"parameterUnit":"m.s-1","parameterCategory":2,"la1":30.2992,"la2":30.254,"lo1":-89.0895,"lo2":-89.0443,"dy":0.0025,"dx":0.0025,"nx":19,"ny":19,"refTime":"2026-04-30T03:00:00:Z","depth":"2","parameterNumber":3,"parameterNumberName":"V-component_of_CURRENTS"},"data":[0,0,0,0.0209,0.0208,0.0138,0.0137,0.0049,0.0048,0,0,0,0,0,0,0,0,0,0,0,0.0236,0.0236,0.0209,0.0208,0.0138,0.0137,0.0049,0.0048,0,0,0,0,0,0,0,0,0,0,0,0.0236,0.0236,0.0236,0.0208,0.0138,0.0137,0.0049,0.0098,0,0,0,0,0,0,0,0,0,0,0.0165,0.02,0.0236,0.0236,0.0208,0.0138,0.0137,0.01,0.0095,0.0086,0,0.0088,0,0.0072,0.0044,0.0044,0,0,0,0.0192,0.0204,0.0183,0.0236,0.0207,0.0138,0.0165,0.0097,0.0091,0.008,0.0087,0.0083,0.0071,0.0043,0.0043,0.0045,0.0045,0,0,0.0196,0.022,0.0188,0.018,0.0205,0.0167,0.0163,0.0093,0.0096,0.0086,0.0081,0.0069,0.0043,0.0043,0.0044,0.0045,0,0,0,0.0218,0.0223,0.0204,0.0184,0.0175,0.0166,0.016,0.0098,0.0092,0.008,0.0068,0.0043,0.0042,0.0044,0.0045,0.0137,0,0,0,0.0219,0.0237,0.0206,0.0219,0.0176,0.0137,0.0167,0.0096,0.0088,0.0069,0.0043,0.0041,0.0043,0.0044,0.0133,0.0187,0,0,0,0.0236,0.0239,0.0235,0.0221,0.0197,0.0137,0.0126,0.0094,0.0082,0.0044,0.0041,0.0043,0.0044,0.013,0.0181,0.0224,0,0,0,0.0256,0.0271,0.0236,0.0256,0.0198,0.0186,0.0126,0.0103,0.0077,0.0042,0.0043,0.0045,0.0128,0.0177,0.022,0.0241,0.0261,0,0,0.0287,0.0276,0.0289,0.0256,0.027,0.0193,0.021,0.0144,0.0092,0.0062,0.0061,0.0134,0.0181,0.0223,0.0311,0.0328,0,0,0,0.0307,0.0318,0.0317,0.0316,0.029,0.0281,0.021,0.0187,0.0155,0.0085,0.0133,0.016,0.0183,0.0188,0.0202,0.005,0.005,0.005,0.005,0.0367,0.0359,0.0387,0.0378,0.0374,0.0333,0.0324,0.0279,0.0215,0.0221,0.0233,0.0329,0.0335,0.0345,0.0223,0.0223,0.0223,0.0224,0.0224,0.0425,0.0438,0.0444,0.0469,0.0459,0.0468,0.0437,0.0399,0.0391,0.0324,0.0341,0.0283,0.0366,0.0231,0.023,0.0229,0.0228,0.0227,0.0227,0.0458,0.0462,0.0486,0.0529,0.0568,0.0559,0.0598,0.0555,0.049,0.0504,0.048,0.0478,0.0387,0.0504,0.0504,0.0505,0.0505,0.0505,0.0506,0.047,0.0493,0.0545,0.0594,0.0639,0.0694,0.0696,0.0692,0.0656,0.0595,0.0594,0.0423,0.0414,0.0403,0.0512,0.0511,0.051,0.051,0.0509,0.0486,0.0503,0.0583,0.0638,0.0754,0.0837,0.084,0.0841,0.0815,0.0805,0.0635,0.0629,0.0601,0.0588,0.0581,0.073,0.073,0.073,0.073,0.0489,0.0506,0.0612,0.0714,0.0832,0.09,0.0972,0.0939,0.0852,0.0774,0.0772,0.0711,0.0701,0.0673,0.0658,0.065,0.0817,0.0818,0.0818,0.0497,0.053,0.0605,0.0716,0.0863,0.0965,0.1025,0.0974,0.0833,0.0819,0.0767,0.074,0.064,0.0629,0.0572,0.0554,0.0534,0,0]}],[{"header":{"parameterUnit":"m.s-1","parameterCategory":2,"la1":30.2992,"la2":30.254,"lo1":-89.0895,"lo2":-89.0443,"dy":0.0025,"dx":0.0025,"nx":19,"ny":19,"refTime":"2026-04-30T03:00:00:Z","depth":"4","parameterNumber":2,"parameterNumberName":"U-component_of_CURRENTS"},"data":[0,0,0,0.1238,0.1239,0.124,0.124,0.1157,0.1156,0,0,0,0,0,0,0,0,0,0,0,0.1243,0.1244,0.1238,0.1239,0.124,0.124,0.1157,0.1156,0,0,0,0,0,0,0,0,0,0,0,0.1243,0.1244,0.1244,0.1239,0.124,0.124,0.1157,0.1174,0,0,0,0,0,0,0,0,0,0,0.1182,0.1221,0.1244,0.1244,0.1239,0.124,0.124,0.1176,0.1173,0.1136,0,0.1153,0,0.1154,0.115,0.1149,0,0,0,0.1226,0.1224,0.1208,0.1244,0.1239,0.124,0.1236,0.1175,0.1172,0.1132,0.1152,0.1149,0.1153,0.1149,0.1149,0.1151,0.1152,0,0,0.1226,0.1252,0.1211,0.1207,0.1259,0.1236,0.1236,0.1174,0.1186,0.1152,0.1148,0.1151,0.1148,0.1148,0.1151,0.1152,0,0,0,0.1234,0.1252,0.124,0.121,0.1218,0.1236,0.1237,0.1189,0.1182,0.1147,0.115,0.1148,0.1147,0.115,0.1151,0.1271,0,0,0,0.1234,0.1257,0.124,0.1256,0.122,0.122,0.1254,0.1186,0.1179,0.1151,0.1148,0.1146,0.1149,0.115,0.1266,0.128,0,0,0,0.124,0.1258,0.1261,0.1257,0.1262,0.1221,0.121,0.1185,0.1181,0.1149,0.1146,0.1148,0.115,0.1262,0.1273,0.131,0,0,0,0.126,0.1272,0.1263,0.1288,0.1262,0.1255,0.1211,0.1211,0.1192,0.1147,0.1149,0.1151,0.126,0.1269,0.1307,0.1099,0,0,0,0.1276,0.1275,0.1288,0.1279,0.129,0.1253,0.1281,0.1244,0.1205,0.1159,0.1159,0.1268,0.1273,0.131,0.1204,0,0,0,0,0.1294,0.1301,0.1305,0.1319,0.1308,0.1312,0.1283,0.1288,0.1295,0.1204,0.127,0.1268,0.1288,0.1156,0.1159,0.1159,0.1159,0.1159,0.1159,0.1301,0.1312,0.1331,0.134,0.1353,0.1357,0.1376,0.1374,0.1339,0.1384,0.137,0.1478,0.1347,0.1392,0.1393,0.1393,0.1394,0.1394,0.1394,0.1288,0.1289,0.1339,0.1363,0.139,0.1419,0.1458,0.1474,0.1523,0.1481,0.1496,0.1296,0.1406,0.1404,0.1402,0.1401,0.14,0.1399,0.1399,0.1253,0.1256,0.1299,0.135,0.1416,0.1461,0.1517,0.157,0.1599,0.1638,0.1472,0.154,0.1524,0.1655,0.1655,0.1655,0.1656,0.1656,0.1656,0.1182,0.1225,0.1258,0.1334,0.1383,0.146,0.1555,0.1582,0.1631,0.1553,0.1663,0.1565,0.1556,0.1537,0.166,0.166,0.1659,0.1659,0.1658,0.1103,0.115,0.1181,0.1229,0.1325,0.1373,0.1497,0.1503,0.1524,0.1492,0.1499,0.1505,0.1427,0.1421,0.1394,0.148,0.1478,0.1475,0,0.1043,0.107,0.11,0.1142,0.1186,0.1297,0.1277,0.133,0.1379,0.134,0.1524,0.1532,0.1535,0.1444,0.1436,0.1402,0,0,0,0.0979,0.1006,0.0995,0.1061,0.1105,0.1156,0.1261,0.123,0.1383,0.1334,0.1419,0.1434,0.1556,0.1673,0.1568,0.1557,0.1519,0,0]},{"header":{"parameterUnit":"m.s-1","parameterCategory":2,"la1":30.2992,"la2":30.254,"lo1":-89.0895,"lo2":-89.0443,"dy":0.0025,"dx":0.0025,"nx":19,"ny":19,"refTime":"2026-04-30T03:00:00:Z","depth":"4","parameterNumber":3,"parameterNumberName":"V-component_of_CURRENTS"},"data":[0,0,0,0.0177,0.0177,0.0155,0.0155,0.0108,0.0108,0,0,0,0,0,0,0,0,0,0,0,0.0188,0.0188,0.0177,0.0177,0.0155,0.0155,0.0109,0.0108,0,0,0,0,0,0,0,0,0,0,0,0.0188,0.0188,0.0188,0.0176,0.0155,0.0155,0.0109,0.0128,0,0,0,0,0,0,0,0,0,0,0.0151,0.0171,0.0188,0.0188,0.0176,0.0155,0.0155,0.0129,0.0127,0.0114,0,0.0119,0,0.0113,0.0105,0.0105,0,0,0,0.0171,0.0173,0.0162,0.0188,0.0176,0.0155,0.0163,0.0128,0.0125,0.0111,0.0118,0.0116,0.0112,0.0105,0.0105,0.009,0.009,0,0,0.0172,0.0185,0.0164,0.0161,0.018,0.0164,0.0163,0.0127,0.013,0.0118,0.0115,0.0111,0.0104,0.0104,0.0089,0.009,0,0,0,0.0179,0.0187,0.0177,0.0163,0.0161,0.0163,0.0162,0.0132,0.0128,0.0114,0.0111,0.0104,0.0104,0.0089,0.009,0.0141,0,0,0,0.018,0.0191,0.0178,0.0186,0.0162,0.015,0.0168,0.013,0.0126,0.0111,0.0104,0.0103,0.0089,0.0089,0.0139,0.0179,0,0,0,0.0187,0.0192,0.0191,0.0187,0.0179,0.0151,0.0144,0.0129,0.0124,0.0105,0.0103,0.0089,0.0089,0.0137,0.0175,0.0194,0,0,0,0.0198,0.0211,0.0192,0.0207,0.0179,0.0175,0.0145,0.0139,0.0127,0.0104,0.0089,0.009,0.0137,0.0173,0.0192,0.0203,0,0,0,0.022,0.0214,0.0222,0.0205,0.0214,0.0177,0.0185,0.0156,0.0127,0.0098,0.0098,0.0139,0.0175,0.0193,0.0226,0,0,0,0,0.0233,0.0242,0.0241,0.0244,0.0228,0.0224,0.0189,0.0169,0.0149,0.0123,0.0133,0.0155,0.0164,0.0164,0.0092,0.0092,0.0091,0.0091,0.0091,0.0271,0.0268,0.0288,0.0283,0.0282,0.0253,0.0244,0.0212,0.0175,0.0174,0.0191,0.0236,0.0237,0.0175,0.0175,0.0175,0.0176,0.0176,0.0176,0.0309,0.0313,0.0329,0.0351,0.0341,0.0348,0.0305,0.0279,0.0263,0.0227,0.0233,0.0212,0.0181,0.018,0.0179,0.0178,0.0178,0.0178,0.0178,0.0323,0.0321,0.0355,0.0394,0.0428,0.0415,0.0437,0.0392,0.0328,0.0334,0.0321,0.0273,0.0274,0.0334,0.0334,0.0335,0.0335,0.0335,0.0335,0.0304,0.0335,0.0379,0.0437,0.048,0.0525,0.0518,0.0503,0.0441,0.0395,0.0357,0.0289,0.0284,0.0283,0.0339,0.0339,0.0338,0.0338,0.0337,0.0269,0.0304,0.0369,0.0425,0.0536,0.0585,0.0601,0.0568,0.0549,0.0506,0.0412,0.0407,0.0391,0.0384,0.0385,0.0474,0.0475,0.0475,0,0.0233,0.026,0.0339,0.0431,0.0533,0.0602,0.062,0.0609,0.0527,0.0509,0.0516,0.0411,0.0406,0.0386,0.038,0.0382,0,0,0,0.0192,0.0233,0.0273,0.0392,0.0522,0.0583,0.0622,0.0598,0.055,0.0545,0.0484,0.0482,0.0433,0.0351,0.0315,0.0309,0.0305,0,0]}]]